Regional Weather Roundup
Issued by NWS Northern Indiana

Home | Current Version | Previous Version | Text Only | Print | Product List | Glossary Off
Versions: 1 2 3 4 5 6 7 8 9 10 11 12 13 14 15 16 17 18 19 20 21 22 23 24 25 26 27 28 29 30 31 32 33 34 35 36 37 38 39 40 41 42 43 44 45 46 47 48 49 50

959
ASUS43 KIWX 301910
RWRIWX

KIWX WEATHER ROUNDUP
NATIONAL WEATHER SERVICE NORTHERN INDIANA
300 PM EDT SAT APR 30 2016

NOTE: "FAIR" INDICATES FEW OR NO CLOUDS BELOW 12,000 FEET WITH NO
SIGNIFICANT WEATHER AND/OR OBSTRUCTIONS TO VISIBILITY.

* THESE STATIONS ARE NOT UNDER NWS QUALITY CONTROL. THEY ALSO MAY NOT
  REPORT WEATHER SUCH AS PRECIPITATION OR FOG.

INZ001>027-302000-
NORTHERN INDIANA

CITY           SKY/WX    TMP DP  RH WIND       PRES   REMARKS
GARY*          LGT RAIN  48  48 100 E14G29    29.95F
VALPARAISO     LGT RAIN  47  45  93 E20G28    29.93F FOG
MICHIGAN CITY* RAIN      46  46 100 E8G16     29.98F
LAPORTE*       LGT RAIN  48  48 100 E18       29.98F
KNOX*          CLOUDY    45  43  93 E14       29.96F
SOUTH BEND     LGT RAIN  47  44  90 E13       30.01F FOG
ELKHART*       LGT RAIN  48  48 100 E10       30.01F
GOSHEN         LGT RAIN  48  44  86 E13       30.01F FOG
MONTICELLO*    RAIN      49  46  88 E9G16     29.90F
LOGANSPORT*    LGT RAIN  46  46 100 E17       29.93F
ROCHESTER*     LGT RAIN  48  46  93 E13       29.96F
WARSAW*        RAIN      45  45 100 E9        30.01R
ANGOLA*        PTSUNNY   48  45  87 E10       30.02F
FORT WAYNE     RAIN      48  45  89 E12       30.02F FOG
HUNTINGTON*    LGT RAIN N/A N/A N/A E8        30.00F
PERU/GRISSOM   LGT RAIN  49  49 100 E16       29.93F FOG
MARION*        RAIN      49  47  95 E14       29.95F

$$
INZ028>050-302000-
CENTRAL INDIANA

CITY           SKY/WX    TMP DP  RH WIND       PRES   REMARKS
LAFAYETTE      RAIN      51  50  96 E12       29.90R FOG
KOKOMO*        CLOUDY    48  45  87 E16G25    29.93F
MUNCIE*        RAIN      52  49  89 NE12      29.94F FOG
INDIANAPOLIS   RAIN      55  52  89 E10       29.90F FOG

$$
MIZ043>046-050>051-056>058-064>065-071>073-077>080-302000-
SOUTHWEST LOWER MICHIGAN

CITY           SKY/WX    TMP DP  RH WIND       PRES   REMARKS
BATTLE CREEK   LGT RAIN  50  39  66 E9        30.05F
BENTON HARBOR  LGT RAIN  49  43  80 E12       30.01F
COLDWATER*     LGT RAIN  49  44  81 E9        30.04F
HILLSDALE*     LGT RAIN  48  43  81 E13       30.05F
HOLLAND        LGT RAIN  51  40  65 E8        30.05F
GRAND RAPIDS   CLOUDY    55  37  50 E12       30.06F
KALAMAZOO      LGT RAIN  50  39  66 E7        30.05F
STURGIS*       LGT RAIN  48  44  87 E13       30.01F
THREE RIVERS*  LGT RAIN  49  44  83 E10       30.03F

$$
OHZ001>008-015>018-024>025-302000-
NORTHWEST OHIO

CITY           SKY/WX    TMP DP  RH WIND       PRES   REMARKS
WAUSEON*       LGT RAIN  48  32  53 E14       30.06F
DEFIANCE       LGT RAIN  51  44  77 E10       30.05F
FINDLAY        LGT RAIN  52  45  77 E10       30.04F
TOLEDO EXPRESS LGT RAIN  48  43  82 NE13      30.07F
TOLEDO METCALF LGT RAIN  48  41  76 E8        30.09F
LIMA           RAIN      49  47  93 E12       30.03F FOG

$$
AND FOR LAKE MICHIGAN COASTAL AND OPEN LAKE BUOY OBSERVATIONS

STATION/POSITION TEMP    WIND        PRES    VSBY  WAVE
                 AIR SEA DIR/SP/G                  HT/PER
                 (F)     (DEG/KT/KT) (MB)    (MI)  (FT/S)
CALUMET HARBOR    45      60/ 17/ 19 1014.7F
MICHIGAN CITY     46      60/ 13/ 15   N/A
BURNS HARBOR      46      90/ 10/ 16 1015.9F
SAINT JOSEPH      48      10/  2/  7 1016.3S
SOUTH LAKE BUOY   43 40   80/ 12/ 14 1016.9F         1/ 3
4 MI NW BRIDGMAN  48 47                N/A           2

$$
&&




USA.gov is the U.S. government's official web portal to all federal, state and local government web resources and services.